Regional Weather Roundup
Issued by NWS Newport/Morehead, NC

Current Version | Previous Version | Graphics & Text | Print | Product List | Glossary On
Versions: 1 2 3 4 5 6 7 8 9 10 11 12 13 14 15 16 17 18 19 20 21 22 23 24 25 26 27 28 29 30 31 32 33 34 35 36 37 38 39 40 41 42 43 44 45 46 47 48 49 50
000 ASUS42 KMHX 301013 RWRMHX WEATHER ROUNDUP FOR EASTERN NORTH CAROLINA NATIONAL WEATHER SERVICE NEWPORT/MOREHEAD CITY NC 600 AM EDT THU MAR 30 2017 NOTE: "FAIR" INDICATES FEW OR NO CLOUDS BELOW 12,000 FEET WITH NO SIGNIFICANT WEATHER AND/OR OBSTRUCTIONS TO VISIBILITY NCZ015>017-031-032-045>047-102-103-301100- NORTH COAST CITY SKY/WX TMP DP RH WIND PRES REMARKS EDENTON PTCLDY 43 41 93 CALM 30.16R ELIZABETH CITY CLEAR 44 43 96 N5 30.16R KITTY HAWK NOT AVBL MANTEO CLEAR 47 46 95 NE7 30.15S $$ NCZ045>047-081-094-103-104-301100- CENTRAL COAST CITY SKY/WX TMP DP RH WIND PRES REMARKS FRISCO CLEAR 55 44 66 NE6 30.11F $$ NCZ095-097-098-100-101-301100- SOUTHERN COAST CITY SKY/WX TMP DP RH WIND PRES REMARKS BEAUFORT CLEAR 51 48 89 NE5 30.11S CEDAR ISLAND NOT AVBL JACKSONVILLE CLEAR 51 49 92 N5 30.11R PINEY ISLAND SUNNY N/A N/A N/A NE10 30.11S WILMINGTON CLEAR 50 50 100 NE6 30.10R $$ NCZ011>013-027>030-043-044-078>080-089-090>093-098-301100- COASTAL PLAIN CITY SKY/WX TMP DP RH WIND PRES REMARKS AHOSKIE N/A 41 41 99 CALM 30.17R FOG CLINTON PTCLDY 51 50 94 NE3 30.13R ELIZABETHTOWN CLEAR 52 52 100 CALM 30.11R GOLDSBORO CLEAR 49 49 100 NE5 30.13R GREENVILLE CLEAR 45 45 100 CALM 30.16S HAVELOCK CLEAR 51 47 86 NE5 30.12F KENANSVILLE FOG 46 46 100 CALM 30.13R VSB 1/4 KINSTON PTCLDY 46 45 97 N3 30.16R FOG NEW BERN CLEAR 48 48 100 CALM 30.14S RICHLANDS CLEAR 45 45 100 N5 30.13R ROCKY MOUNT CLOUDY 49 47 93 NE3 30.16R WASHINGTON CLEAR 41 40 97 CALM 30.15R WHITEVILLE CLEAR 55 53 94 NE5 30.09R $$ AMZ130-135-150-152-154-156-158-170-250-252-270-ANZ085-086-088-633-658-670-301100- MARINE OBSERVATIONS STATION/POSITION TIME TEMP WIND PRES WAVE SWELL AIR SEA DIR/SP/G HT/PER HT/PER (UTC) (F) (DEG/KT/KT) (MB) (FT/S) (FT/S) CHESAPEAKE LIGHT NOT AVBL 64 E VA BEACH 0950 49 51 10/ 12/ 14 1020.8 5/ 9 3/ 9 DUCK 0948 49 50 30/ 8/ 8 1020.5 2 E DUCK 0930 50 N/A 4/ 7 2/11 OREGON INLET 0948 10/ 7/ 10 N/A 13E OREGON INLT 0948 49 N/A 5/ 8 5/ 8 HATTERAS CG 0948 56 60 40/ 5/ 8 1019.2 DIAMOND BUOY 0950 62 76 20/ 14/ 17 1019.2 8/10 7/10 CAPE LOOKOUT 0900 62 50/ 13/ 15 1018.9 BEAUFORT LAB 0948 53 62 20/ 5/ 6 1018.4 30 SE NEW RVR IN 0908 63 70/ 10/ 14 1019.1 30 SE NEW RVR IN 0943 63 N/A 5/10 2/11 27 SE WRIGHTSVLE 0908 66 73 80/ 14/ 19 1017.5 5 SE WRIGHTSVLE 0908 59 58 60/ 12/ 16 1018.6 225 S CAPE HAT 0950 68 72 60/ 10/ 12 1017.3 7/10 7/10 41 SE CHARLESTON 0850 71 70 100/ 16/ 17 1015.8 5/ 9 3/ 9 $$

USA.gov is the U.S. government's official web portal to all federal, state and local government web resources and services.